[[{"header":{"parameterUnit":"m.s-1","parameterCategory":1,"la1":30.2991,"la2":30.254,"lo1":-89.0895,"lo2":-89.0444,"dy":0.0017,"dx":0.0017,"nx":28,"ny":28,"refTime":"2025-08-25T09:00:00:Z","depth":0,"parameterNumber":2,"parameterNumberName":"U-component_of_WINDS"},"data":[0,0,0,0,0,0,0,0,0,0,0,0,0,0,0,0,0,0,0,0,0,0,0,0,0,0,0,0,0,0,0,0,0,0,0,0,0,0,0,0,0,0,0,0,0,0,0,0,0,0,0,0,0,0,0,0,0,0,0.1459,0.1459,0,0.142,0.142,0.1419,0.1331,0.1329,0.1327,0.1325,0.1289,0.129,0.129,0,0,0,0,0,0,0,0,0,0,0,0,0,0.1462,0.1462,0.1459,0.1459,0.1458,0.142,0.142,0.1419,0.1331,0.1329,0.1327,0.1324,0.1289,0.129,0.129,0,0,0,0,0,0,0,0,0,0,0,0,0,0.1446,0.1462,0.1459,0.141,0.1405,0.1421,0.142,0.1419,0.1331,0.1329,0.1326,0.1323,0.1288,0.1289,0.1291,0.1353,0,0,0.1294,0.1294,0,0,0,0,0,0,0,0,0.1447,0.1446,0.1417,0.1413,0.1408,0.1377,0.1407,0.1397,0.1332,0.1359,0.1325,0.1322,0.1321,0.1319,0.1318,0.1351,0.1349,0.1294,0.1295,0.1295,0.1296,0,0,0,0,0,0,0,0.1448,0.1447,0.1444,0.1417,0.1411,0.1391,0.1385,0.1405,0.1356,0.1357,0.135,0.1347,0.1318,0.1317,0.1316,0.1349,0.1294,0.1295,0.1296,0.1296,0.1434,0.1437,0,0,0,0,0,0,0.1456,0.1449,0.1445,0.1443,0.1421,0.1393,0.1387,0.139,0.1356,0.1348,0.1349,0.1343,0.1317,0.1315,0.1315,0.1388,0.1295,0.1296,0.1297,0.1431,0.1435,0.1438,0,0,0,0,0,0,0.1456,0.1456,0.1447,0.1444,0.1441,0.1396,0.14,0.1391,0.139,0.135,0.1341,0.1357,0.1314,0.1313,0.1344,0.1385,0.1297,0.1298,0.1428,0.1432,0.1437,0.1533,0,0,0,0,0,0,0.1457,0.1457,0.1479,0.1445,0.1442,0.1476,0.1402,0.1392,0.1392,0.1383,0.1355,0.1348,0.1312,0.1343,0.1346,0.1385,0.1299,0.1424,0.143,0.1435,0.1526,0.154,0.1552,0,0,0,0,0,0.1457,0.1508,0.1481,0.1481,0.1468,0.1478,0.1477,0.1433,0.1395,0.1418,0.1393,0.1349,0.138,0.1347,0.1349,0.139,0.1421,0.1428,0.1435,0.152,0.1537,0.1552,0,0,0,0,0,0,0.1548,0.1502,0.1472,0.1512,0.15,0.1463,0.149,0.1453,0.1451,0.1443,0.1391,0.1385,0.1425,0.141,0.1374,0.1449,0.1394,0.1401,0.1458,0.1474,0.1487,0.1491,0.13,0,0,0,0,0,0.1573,0.1584,0.1544,0.1584,0.1579,0.1536,0.1539,0.1507,0.1492,0.1487,0.1463,0.1452,0.146,0.1465,0.147,0.1523,0.1517,0.1552,0.1565,0.1576,0.1584,0.1614,0.1629,0.146,0.146,0.146,0,0,0.1625,0.1601,0.1611,0.1602,0.1588,0.1603,0.1532,0.155,0.1561,0.149,0.1518,0.1501,0.1485,0.1528,0.1546,0.1517,0.1629,0.1584,0.1594,0.1595,0.1622,0.1638,0.1653,0.1465,0.1464,0.1463,0,0,0.1727,0.1708,0.1741,0.1729,0.171,0.1681,0.1689,0.1658,0.1644,0.1671,0.1619,0.1632,0.1645,0.1637,0.1634,0.1735,0.1696,0.1738,0.1808,0.1837,0.1851,0.1862,0.1901,0.1915,0.1745,0.1746,0.1746,0,0.1794,0.1812,0.1763,0.1785,0.1783,0.1719,0.1753,0.1744,0.1728,0.1729,0.1696,0.1713,0.1697,0.1739,0.1764,0.1763,0.1773,0.1742,0.1852,0.1864,0.1874,0.191,0.1925,0.1751,0.175,0.175,0.1749,0,0.1897,0.1911,0.194,0.1925,0.1927,0.1954,0.1912,0.1919,0.1888,0.1863,0.1894,0.1873,0.1873,0.188,0.1849,0.1919,0.1902,0.1862,0.1805,0.1896,0.193,0.1943,0.1759,0.1757,0.1755,0.1754,0,0,0.2056,0.2014,0.2026,0.202,0.1994,0.2004,0.203,0.203,0.2039,0.203,0.2052,0.2066,0.2029,0.2027,0.1994,0.202,0.2105,0.1977,0.1976,0.2004,0.2184,0.2216,0.2232,0.2078,0.208,0.2082,0.2186,0,0.2153,0.2194,0.2152,0.2202,0.2216,0.2156,0.2179,0.2167,0.2145,0.2155,0.2131,0.2143,0.2092,0.209,0.2113,0.209,0.2141,0.2081,0.2101,0.2102,0.2109,0.2249,0.2283,0.2381,0.2198,0.22,0.2202,0,0.2273,0.2269,0.2321,0.2294,0.2299,0.232,0.2317,0.2327,0.2313,0.2295,0.2293,0.2254,0.228,0.2223,0.226,0.2221,0.2226,0.2216,0.2219,0.2221,0.2159,0.2258,0.2411,0.2428,0.2222,0.222,0.2219,0,0.2387,0.2395,0.2428,0.2424,0.2392,0.241,0.2398,0.238,0.2384,0.2382,0.2384,0.2386,0.2387,0.239,0.2354,0.2315,0.2396,0.2336,0.2385,0.2386,0.2406,0.2406,0.2566,0.2406,0.2406,0.2405,0.2405,0,0.2502,0.2537,0.2479,0.25,0.2538,0.2489,0.2529,0.2511,0.2497,0.2514,0.2462,0.248,0.2429,0.2442,0.2413,0.245,0.245,0.2439,0.2432,0.2445,0.2447,0.245,0.2443,0.2409,0.2408,0.2408,0.2407,0,0.2637,0.2599,0.2631,0.2599,0.2592,0.2622,0.2595,0.2614,0.2588,0.2612,0.2614,0.2576,0.2589,0.2552,0.2559,0.254,0.2594,0.2574,0.2599,0.2594,0.2646,0.2643,0.2815,0.2836,0.2661,0.2662,0.2664,0,0.2714,0.2739,0.271,0.2717,0.2708,0.2721,0.2724,0.2678,0.2683,0.2671,0.2692,0.27,0.2705,0.2729,0.2703,0.2709,0.2691,0.2751,0.2691,0.2705,0.2695,0.2695,0.2699,0.2764,0.2766,0.2768,0.2769,0,0.2856,0.2836,0.2842,0.2842,0.2847,0.2845,0.284,0.285,0.28,0.281,0.2822,0.2826,0.2834,0.2844,0.2845,0.2834,0.2795,0.2788,0.28,0.2815,0.283,0.2826,0.2635,0.2784,0.2783,0.2782,0.2781,0.278,0.2966,0.2987,0.297,0.2979,0.297,0.2966,0.2983,0.296,0.2969,0.2972,0.2944,0.2963,0.2951,0.2947,0.2941,0.2957,0.2929,0.2946,0.2951,0.2957,0.2967,0.2825,0.2956,0.2956,0.2955,0.2955,0.2954,0,0.3107,0.3093,0.3102,0.3096,0.3104,0.3064,0.3057,0.3067,0.3084,0.3075,0.3081,0.3097,0.3107,0.3081,0.3088,0.3106,0.3089,0.311,0.3109,0.3108,0.2989,0.2979,0.3124,0.3124,0.3124,0.3124,0.3124,0.3124,0.3182,0.3216,0.3195,0.3225,0.3211,0.3229,0.3228,0.3226,0.3219,0.3238,0.3246,0.3229,0.3215,0.322,0.3229,0.3221,0.3228,0.3256,0.3243,0.3133,0.3116,0.31,0.3091,0.3257,0.3257,0.3361,0.3362,0.3362]},{"header":{"parameterUnit":"m.s-1","parameterCategory":1,"la1":30.2991,"la2":30.254,"lo1":-89.0895,"lo2":-89.0444,"dy":0.0017,"dx":0.0017,"nx":28,"ny":28,"refTime":"2025-08-25T09:00:00:Z","depth":0,"parameterNumber":3,"parameterNumberName":"V-component_of_WINDS"},"data":[0,0,0,0,0,0,0,0,0,0,0,0,0,0,0,0,0,0,0,0,0,0,0,0,0,0,0,0,0,0,0,0,0,0,0,0,0,0,0,0,0,0,0,0,0,0,0,0,0,0,0,0,0,0,0,0,0,0,-2.1792,-2.1792,0,-2.1754,-2.1754,-2.1753,-2.1749,-2.175,-2.175,-2.175,-2.1708,-2.1706,-2.1705,0,0,0,0,0,0,0,0,0,0,0,0,0,-2.1856,-2.1854,-2.1792,-2.1792,-2.1791,-2.1754,-2.1754,-2.1753,-2.1749,-2.175,-2.175,-2.1751,-2.1708,-2.1706,-2.1705,0,0,0,0,0,0,0,0,0,0,0,0,0,-2.1824,-2.1854,-2.1792,-2.1785,-2.1784,-2.1754,-2.1754,-2.1753,-2.1749,-2.175,-2.175,-2.1751,-2.1709,-2.1707,-2.1704,-2.1679,0,0,-2.1697,-2.1696,0,0,0,0,0,0,0,0,-2.1826,-2.1821,-2.1786,-2.1785,-2.1784,-2.1757,-2.1761,-2.1728,-2.1749,-2.1762,-2.175,-2.1751,-2.1723,-2.172,-2.1711,-2.1677,-2.1675,-2.1697,-2.1696,-2.1695,-2.1694,0,0,0,0,0,0,0,-2.1828,-2.1823,-2.1777,-2.1786,-2.1784,-2.1782,-2.1778,-2.1754,-2.174,-2.1761,-2.1761,-2.1756,-2.1723,-2.1714,-2.171,-2.1674,-2.1697,-2.1695,-2.1694,-2.1693,-2.1613,-2.1612,0,0,0,0,0,0,-2.1832,-2.1825,-2.1778,-2.1776,-2.1807,-2.178,-2.1776,-2.1765,-2.174,-2.1737,-2.1756,-2.1756,-2.1717,-2.1713,-2.1709,-2.1675,-2.1695,-2.1693,-2.1691,-2.1614,-2.1613,-2.1612,0,0,0,0,0,0,-2.1833,-2.1828,-2.178,-2.18,-2.1794,-2.1778,-2.1766,-2.1764,-2.1755,-2.1736,-2.1733,-2.175,-2.1718,-2.1712,-2.1686,-2.1673,-2.1692,-2.169,-2.1615,-2.1613,-2.1612,-2.1608,0,0,0,0,0,0,-2.1835,-2.1829,-2.182,-2.18,-2.1793,-2.1759,-2.1766,-2.1763,-2.1752,-2.1752,-2.1729,-2.1726,-2.1718,-2.1689,-2.1684,-2.1671,-2.1688,-2.1616,-2.1614,-2.1613,-2.1609,-2.1607,-2.1605,0,0,0,0,0,-2.1838,-2.182,-2.182,-2.1814,-2.1782,-2.1758,-2.1754,-2.1745,-2.1751,-2.1741,-2.1728,-2.1727,-2.1676,-2.1687,-2.168,-2.1666,-2.1616,-2.1615,-2.1613,-2.161,-2.1607,-2.1605,0,0,0,0,0,0,-2.1837,-2.1817,-2.1817,-2.1792,-2.1777,-2.1758,-2.1745,-2.1743,-2.1725,-2.1726,-2.1715,-2.171,-2.1683,-2.1672,-2.1684,-2.1639,-2.1646,-2.1643,-2.1647,-2.1644,-2.1642,-2.1644,-2.1686,0,0,0,0,0,-2.1835,-2.1819,-2.1801,-2.1781,-2.1774,-2.1761,-2.175,-2.1745,-2.1728,-2.1721,-2.1707,-2.169,-2.1669,-2.1656,-2.1637,-2.1608,-2.1601,-2.1595,-2.1593,-2.1592,-2.1588,-2.1569,-2.1566,-2.1606,-2.1606,-2.1606,0,0,-2.1829,-2.1816,-2.1806,-2.1781,-2.1769,-2.175,-2.1755,-2.1736,-2.1722,-2.1718,-2.1692,-2.1681,-2.166,-2.1632,-2.1619,-2.1622,-2.1576,-2.1589,-2.1588,-2.1586,-2.1567,-2.1563,-2.156,-2.1605,-2.1605,-2.1606,0,0,-2.1808,-2.1798,-2.1779,-2.1766,-2.1748,-2.1739,-2.1734,-2.1715,-2.1707,-2.1682,-2.1678,-2.1659,-2.1626,-2.161,-2.1598,-2.157,-2.1567,-2.1564,-2.1552,-2.1534,-2.1531,-2.1528,-2.1515,-2.1511,-2.1561,-2.1561,-2.1561,0,-2.1802,-2.1776,-2.1769,-2.175,-2.1738,-2.1734,-2.1714,-2.1702,-2.1677,-2.1668,-2.1672,-2.1628,-2.1615,-2.1581,-2.1574,-2.1566,-2.1558,-2.1566,-2.1532,-2.1529,-2.1526,-2.1514,-2.1509,-2.1561,-2.1561,-2.1561,-2.1561,0,-2.1769,-2.175,-2.1737,-2.1714,-2.1701,-2.1681,-2.1669,-2.1656,-2.1652,-2.1642,-2.1613,-2.1597,-2.1573,-2.1565,-2.156,-2.153,-2.1532,-2.1535,-2.1542,-2.1522,-2.151,-2.1505,-2.156,-2.1561,-2.1561,-2.1561,0,0,-2.1747,-2.172,-2.1715,-2.1703,-2.1682,-2.1667,-2.1646,-2.1623,-2.1611,-2.1594,-2.1574,-2.1545,-2.1546,-2.1532,-2.1526,-2.151,-2.1485,-2.1514,-2.1513,-2.1507,-2.1448,-2.1444,-2.1439,-2.1484,-2.1483,-2.1482,-2.1448,0,-2.1722,-2.1686,-2.1678,-2.1646,-2.1627,-2.1623,-2.1604,-2.1588,-2.1578,-2.1559,-2.1547,-2.1525,-2.153,-2.1521,-2.1506,-2.1492,-2.1473,-2.1494,-2.1463,-2.1462,-2.1466,-2.1433,-2.1431,-2.1399,-2.1444,-2.1443,-2.1443,0,-2.1688,-2.1671,-2.1637,-2.1616,-2.1608,-2.1591,-2.1569,-2.1552,-2.1532,-2.1525,-2.1509,-2.1504,-2.1479,-2.1489,-2.1453,-2.1468,-2.1454,-2.1445,-2.1444,-2.1439,-2.1449,-2.1425,-2.139,-2.1384,-2.1436,-2.1436,-2.1437,0,-2.1673,-2.1641,-2.1616,-2.1606,-2.1582,-2.157,-2.1559,-2.154,-2.1526,-2.1506,-2.1496,-2.1473,-2.146,-2.1441,-2.1429,-2.1438,-2.1393,-2.1402,-2.1384,-2.1384,-2.1373,-2.1374,-2.1333,-2.1369,-2.1369,-2.1369,-2.1369,0,-2.1645,-2.1624,-2.1608,-2.1593,-2.1568,-2.1558,-2.1533,-2.1522,-2.1505,-2.1485,-2.148,-2.1461,-2.1447,-2.1426,-2.1416,-2.1386,-2.1381,-2.1373,-2.137,-2.1372,-2.1372,-2.1361,-2.1362,-2.1368,-2.1368,-2.1368,-2.1368,0,-2.1623,-2.1612,-2.1584,-2.1563,-2.1557,-2.154,-2.1521,-2.1504,-2.1493,-2.1468,-2.1462,-2.1444,-2.1419,-2.1405,-2.1373,-2.1366,-2.1331,-2.1331,-2.1338,-2.1336,-2.1318,-2.1319,-2.1266,-2.1257,-2.1302,-2.1301,-2.1301,0,-2.1605,-2.1588,-2.1566,-2.1553,-2.1541,-2.1521,-2.1507,-2.1496,-2.1481,-2.1456,-2.1442,-2.1416,-2.1395,-2.1353,-2.1336,-2.1311,-2.1308,-2.1291,-2.1304,-2.1305,-2.1304,-2.1304,-2.1301,-2.1288,-2.1288,-2.1288,-2.1287,0,-2.1573,-2.1568,-2.1549,-2.1527,-2.151,-2.1492,-2.1474,-2.1463,-2.1449,-2.1432,-2.1406,-2.1389,-2.1356,-2.1329,-2.1302,-2.1288,-2.1284,-2.1284,-2.1277,-2.1278,-2.1282,-2.1277,-2.1329,-2.1284,-2.1285,-2.1285,-2.1285,-2.1285,-2.1551,-2.1535,-2.1516,-2.1494,-2.1479,-2.1462,-2.1444,-2.1431,-2.141,-2.1383,-2.1377,-2.1349,-2.1327,-2.129,-2.1276,-2.1251,-2.1254,-2.1247,-2.1244,-2.1241,-2.1239,-2.1288,-2.1247,-2.1247,-2.1247,-2.1247,-2.1247,0,-2.1517,-2.1504,-2.1484,-2.1458,-2.144,-2.144,-2.1419,-2.1403,-2.1379,-2.1359,-2.1338,-2.1306,-2.128,-2.1261,-2.1233,-2.1217,-2.1214,-2.121,-2.121,-2.1206,-2.124,-2.1246,-2.1213,-2.1213,-2.1213,-2.1213,-2.1213,-2.1213,-2.1496,-2.1469,-2.1461,-2.1425,-2.1412,-2.1385,-2.1373,-2.1356,-2.134,-2.1305,-2.1284,-2.1272,-2.1251,-2.1222,-2.1197,-2.1191,-2.118,-2.1175,-2.1169,-2.1201,-2.1204,-2.1208,-2.1214,-2.1174,-2.1174,-2.1137,-2.1137,-2.1137]}]]